Back to catalog

YAOGAN 29

AliveMilitarySSO
NORAD 41038·PAYLOAD·🇨🇳 China

Launched Nov 26, 2015 from Taiyuan Satellite Launch Center

Loading…

Next Passes (next 24 hours)

TLE

FreshSource: Space-Track

Epoch: Sep 14, 2026, 15:19 UTC

1 41038U 15069A   26257.63860713  .00000191  00000-0  30002-4 0  9993
2 41038  97.9984 286.3957 0002884  89.4468 270.7076 14.83143210583883

Track YAOGAN 29 in real time with AllMySat

Download on the App Store